EW0997 Weather Reports


time (UTC)temp
C
wind
direction
speed
KPH
gust
KPH
rain 1hr
cm
rain 24hr
cm
rain mn
cm
humidity
%
barometer
mb
20260506203704 11 9 8.0 19.3 0.00 0.00 0.00 71 1012.1
20260506203204 11 24 9.7 14.5 0.00 0.00 0.00 71 1012.1
20260506202704 11 13 4.8 19.3 0.00 0.00 0.00 70 1012.1
20260506202205 11 23 8.0 14.5 0.00 0.00 0.00 70 1012.1
20260506201205 12 11 8.0 19.3 0.00 0.00 0.00 70 1011.9
20260506200706 12 18 9.7 16.1 0.00 0.00 0.00 71 1011.9
20260506200205 12 20 9.7 16.1 0.00 0.00 0.00 71 1011.9
20260506195705 12 17 6.4 16.1 0.00 0.00 0.00 70 1011.9
20260506195204 12 12 8.0 16.1 0.00 0.00 0.00 71 1011.8
20260506194705 12 19 4.8 19.3 0.00 0.00 0.00 71 1011.7
20260506194205 12 18 8.0 14.5 0.00 0.00 0.00 72 1011.7
20260506193205 12 30 8.0 12.9 0.00 0.00 0.00 73 1011.5
20260506192704 12 19 4.8 11.3 0.00 0.00 0.00 75 1011.5
20260506192204 12 16 3.2 8.0 0.00 0.00 0.00 75 1011.5
20260506191705 12 66 9.7 19.3 0.00 0.00 0.00 77 1011.5
20260506190705 12 74 4.8 11.3 0.00 0.00 0.00 75 1011.3
20260506190205 12 48 4.8 20.9 0.00 0.00 0.00 74 1011.3
20260506185705 12 69 6.4 20.9 0.00 0.00 0.00 71 1011.1
20260506185205 12 31 8.0 14.5 0.00 0.00 0.00 71 1011.1
20260506184704 12 25 4.8 14.5 0.00 0.00 0.00 71 1011.0
20260506184204 12 13 4.8 12.9 0.00 0.00 0.00 70 1010.9
20260506183206 12 12 3.2 8.0 0.00 0.00 0.00 71 1010.8
20260506182704 12 7 4.8 9.7 0.00 0.00 0.00 69 1010.8
20260506182204 12 19 3.2 8.0 0.00 0.00 0.00 70 1010.8
20260506181704 12 14 6.4 12.9 0.00 0.00 0.00 69 1010.7
20260506180204 12 55 9.7 19.3 0.00 0.00 0.00 67 1010.6
20260506175705 12 17 8.0 16.1 0.00 0.00 0.00 68 1010.6
20260506175204 12 23 8.0 16.1 0.00 0.00 0.00 67 1010.5
20260506174704 12 15 6.4 12.9 0.00 0.00 0.00 66 1010.4
20260506174204 13 22 9.7 14.5 0.00 0.00 0.00 65 1010.2
20260506173705 13 14 4.8 12.9 0.00 0.00 0.00 67 1010.2
20260506173204 13 22 6.4 16.1 0.00 0.00 0.00 65 1010.1
20260506172704 13 30 4.8 16.1 0.00 0.00 0.00 65 1010.1
20260506172204 13 10 4.8 12.9 0.00 0.00 0.00 65 1010.0
20260506171204 13 70 8.0 14.5 0.00 0.00 0.00 66 1009.9
20260506170704 13 47 4.8 11.3 0.00 0.00 0.00 65 1009.9
20260506170204 13 60 4.8 12.9 0.00 0.00 0.00 63 1009.9
20260506165704 13 24 4.8 19.3 0.00 0.00 0.00 65 1009.9
20260506165204 13 73 4.8 11.3 0.00 0.00 0.00 65 1009.9
20260506164204 13 136 3.2 8.0 0.00 0.00 0.00 63 1009.8
20260506163704 13 121 1.6 4.8 0.00 0.00 0.00 66 1009.9
20260506163204 13 121 1.6 4.8 0.00 0.00 0.00 64 1009.8
20260506162704 13 99 4.8 9.7 0.00 0.00 0.00 64 1009.8
20260506161704 13 102 1.6 8.0 0.00 0.00 0.00 65 1009.8
20260506161204 13 101 4.8 9.7 0.00 0.00 0.00 62 1009.7
20260506160205 13 100 3.2 9.7 0.00 0.00 0.00 60 1009.8
20260506155704 13 103 1.6 8.0 0.00 0.00 0.00 61 1009.8
20260506155204 13 77 1.6 12.9 0.00 0.00 0.00 62 1009.8
20260506154703 13 65 1.6 11.3 0.00 0.00 0.00 62 1009.8
20260506154204 13 134 3.2 8.0 0.00 0.00 0.00 60 1009.8
20260506153704 13 95 4.8 9.7 0.00 0.00 0.00 62 1009.8
20260506153206 13 110 8.0 14.5 0.00 0.00 0.00 61 1009.8
20260506152707 13 77 3.2 12.9 0.00 0.00 0.00 60 1009.8
20260506152206 13 61 3.2 12.9 0.00 0.00 0.00 60 1009.7
20260506151706 13 99 4.8 11.3 0.00 0.00 0.00 58 1009.7
20260506151206 13 109 3.2 9.7 0.00 0.00 0.00 61 1009.7
20260506150706 13 66 3.2 12.9 0.00 0.00 0.00 63 1009.6
20260506150206 13 111 4.8 12.9 0.00 0.00 0.00 63 1009.6
20260506145706 13 109 6.4 12.9 0.00 0.00 0.00 60 1009.6
20260506145206 13 87 3.2 14.5 0.00 0.00 0.00 60 1009.6
20260506144206 13 122 8.0 14.5 0.00 0.00 0.00 61 1009.7
20260506143706 13 115 9.7 19.3 0.00 0.00 0.00 61 1009.7
20260506142706 13 120 4.8 12.9 0.00 0.00 0.00 62 1009.6
20260506142206 13 111 3.2 12.9 0.00 0.00 0.00 62 1009.6
20260506141706 13 94 4.8 16.1 0.00 0.00 0.00 60 1009.6
20260506140706 15 40 8.0 22.5 0.00 0.00 0.00 54 1009.6
20260506140206 15 49 9.7 20.9 0.00 0.00 0.00 51 1009.6
20260506135706 15 18 8.0 22.5 0.00 0.00 0.00 49 1009.6
20260506135206 15 51 6.4 22.5 0.00 0.00 0.00 57 1009.6
20260506133206 13 87 4.8 14.5 0.00 0.00 0.00 59 1009.5
20260506132705 13 96 3.2 16.1 0.00 0.00 0.00 60 1009.5
20260506132206 13 69 8.0 16.1 0.00 0.00 0.00 59 1009.5
20260506131706 13 95 4.8 11.3 0.00 0.00 0.00 60 1009.4
20260506131206 13 100 3.2 11.3 0.00 0.00 0.00 59 1009.5
20260506130706 14 78 9.7 16.1 0.00 0.00 0.00 60 1009.4
20260506130206 14 46 9.7 14.5 0.00 0.00 0.00 58 1009.3
20260506125706 14 62 8.0 19.3 0.00 0.00 0.00 55 1009.3
20260506125206 14 60 9.7 19.3 0.00 0.00 0.00 58 1009.3
20260506124706 15 30 16.1 24.1 0.00 0.00 0.00 53 1009.2
20260506124206 15 35 4.8 16.1 0.00 0.00 0.00 58 1009.3
20260506123706 15 62 9.7 20.9 0.00 0.00 0.00 59 1009.2
20260506123206 15 64 9.7 16.1 0.00 0.00 0.00 58 1009.2
20260506122706 15 70 11.3 19.3 0.00 0.00 0.00 62 1009.2
20260506122208 15 46 9.7 19.3 0.00 0.00 0.00 62 1009.2
20260506121706 15 32 9.7 19.3 0.00 0.00 0.00 58 1009.1
20260506121206 15 44 9.7 19.3 0.00 0.00 0.00 59 1009.2
20260506120706 16 15 17.7 29.0 0.00 0.00 0.00 55 1009.2
20260506120206 16 35 8.0 22.5 0.00 0.00 0.00 58 1009.1
20260506115705 16 55 9.7 22.5 0.00 0.00 0.00 58 1009.1
20260506115205 15 64 9.7 19.3 0.00 0.00 0.00 59 1009.1
20260506114705 15 59 9.7 25.7 0.00 0.00 0.00 59 1009.1
20260506114206 15 17 12.9 22.5 0.00 0.00 0.00 62 1009.1
20260506113706 14 11 11.3 22.5 0.00 0.00 0.00 59 1009.1
20260506112706 15 72 9.7 20.9 0.00 0.00 0.00 63 1009.1
20260506112206 15 31 9.7 22.5 0.00 0.00 0.00 62 1009.1
20260506111706 15 61 11.3 27.4 0.00 0.00 0.00 61 1009.1
20260506111206 15 16 9.7 19.3 0.00 0.00 0.00 64 1009.1
20260506105705 15 52 12.9 24.1 0.00 0.00 0.00 65 1009.1
20260506105206 15 69 9.7 24.1 0.00 0.00 0.00 64 1009.1
20260506104705 15 71 11.3 25.7 0.00 0.00 0.00 62 1009.0
20260506104205 15 32 11.3 22.5 0.00 0.00 0.00 62 1009.1
20260506103706 15 62 12.9 22.5 0.00 0.00 0.00 68 1009.0
20260506103205 15 28 11.3 19.3 0.00 0.00 0.00 69 1009.1
20260506102706 14 13 11.3 22.5 0.00 0.00 0.00 67 1009.1
20260506102206 14 62 9.7 20.9 0.00 0.00 0.00 70 1009.0
20260506100206 13 55 9.7 19.3 0.00 0.00 0.00 74 1008.9
20260506095706 13 20 6.4 20.9 0.00 0.00 0.00 74 1008.9
20260506095205 13 7 11.3 20.9 0.00 0.00 0.00 73 1008.9
20260506094706 14 56 14.5 24.1 0.00 0.00 0.00 74 1008.9
20260506094206 13 47 14.5 20.9 0.00 0.00 0.00 76 1008.8
20260506093706 13 15 11.3 24.1 0.00 0.00 0.00 76 1008.8
20260506093206 13 57 11.3 20.9 0.00 0.00 0.00 77 1008.9
20260506092705 13 54 11.3 22.5 0.00 0.00 0.00 75 1008.8
20260506092205 13 31 11.3 20.9 0.00 0.00 0.00 73 1008.8
20260506091705 14 12 8.0 22.5 0.00 0.00 0.00 72 1008.6
20260506090705 15 71 11.3 20.9 0.00 0.00 0.00 71 1008.7
20260506090205 15 76 14.5 24.1 0.00 0.00 0.00 71 1008.7
20260506085706 15 54 16.1 27.4 0.00 0.00 0.00 69 1008.7
20260506084205 14 19 14.5 29.0 0.00 0.00 0.00 70 1008.5
20260506083706 14 14 14.5 25.7 0.00 0.00 0.00 71 1008.5
20260506083206 14 64 14.5 24.1 0.00 0.00 0.00 73 1008.5
20260506082705 13 59 9.7 19.3 0.00 0.00 0.00 76 1008.4
20260506082205 13 3 9.7 20.9 0.00 0.00 0.00 78 1008.4
20260506081706 13 23 8.0 16.1 0.00 0.00 0.00 79 1008.4
20260506081205 13 32 12.9 19.3 0.00 0.00 0.00 77 1008.4
20260506080705 13 19 8.0 16.1 0.00 0.00 0.00 78 1008.4
20260506080205 12 16 9.7 20.9 0.00 0.00 0.00 79 1008.3
20260506073205 12 23 11.3 25.7 0.00 0.00 0.00 80 1008.4
20260506072705 12 7 12.9 20.9 0.00 0.00 0.00 81 1008.4
20260506072206 12 24 9.7 22.5 0.00 0.00 0.00 83 1008.4
20260506071205 11 4 4.8 16.1 0.00 0.00 0.00 83 1008.4
20260506070705 11 17 9.7 19.3 0.00 0.00 0.00 83 1008.4
20260506070205 11 7 11.3 19.3 0.00 0.00 0.00 83 1008.3
20260506062205 11 15 8.0 12.9 0.00 0.00 0.00 82 1008.2
20260506061705 11 0 9.7 14.5 0.00 0.00 0.00 83 1008.2
20260506061205 11 0 6.4 12.9 0.00 0.00 0.00 84 1008.2
20260506060706 11 4 9.7 19.3 0.00 0.00 0.00 84 1008.2
20260506060205 11 15 9.7 14.5 0.00 0.00 0.00 84 1008.2
20260506051205 10 19 8.0 16.1 0.00 0.00 0.00 85 1008.1
20260506050705 10 21 11.3 16.1 0.00 0.00 0.00 85 1008.2
20260506050205 10 3 4.8 11.3 0.00 0.00 0.00 84 1008.2
20260506044705 10 10 9.7 19.3 0.00 0.00 0.00 84 1008.2
20260506044205 10 12 9.7 19.3 0.00 0.00 0.00 84 1008.2
20260506043704 10 10 11.3 20.9 0.00 0.00 0.00 84 1008.2
20260506043205 10 16 11.3 20.9 0.00 0.00 0.00 84 1008.2
20260506041205 10 13 8.0 14.5 0.00 0.00 0.00 84 1008.3
20260506040705 10 22 12.9 19.3 0.00 0.00 0.00 84 1008.3
20260506040205 10 13 8.0 19.3 0.00 0.00 0.00 84 1008.4
20260506035705 10 25 9.7 16.1 0.00 0.00 0.00 85 1008.4
20260506035205 10 10 8.0 22.5 0.00 0.00 0.00 85 1008.3
20260506034704 10 17 14.5 19.3 0.00 0.00 0.00 85 1008.4
20260506034205 10 10 4.8 16.1 0.00 0.00 0.00 86 1008.4
20260506033705 10 12 8.0 12.9 0.00 0.00 0.00 86 1008.4
20260506032705 10 15 8.0 14.5 0.00 0.00 0.00 85 1008.5
20260506032205 10 17 4.8 8.0 0.00 0.00 0.00 85 1008.5
20260506031705 10 20 9.7 19.3 0.00 0.00 0.00 85 1008.5
20260506031205 10 14 4.8 12.9 0.00 0.00 0.00 85 1008.5
20260506030705 10 18 8.0 16.1 0.00 0.00 0.00 84 1008.6
20260506030205 10 11 6.4 14.5 0.00 0.00 0.00 84 1008.6
20260506025705 10 12 4.8 11.3 0.00 0.00 0.00 84 1008.7
20260506025204 10 12 8.0 14.5 0.00 0.00 0.00 84 1008.7
20260506024705 10 14 8.0 12.9 0.00 0.00 0.00 84 1008.7
20260506024204 10 10 4.8 12.9 0.00 0.00 0.00 84 1008.7
20260506023705 10 15 9.7 16.1 0.00 0.00 0.00 84 1008.7
20260506023205 10 6 8.0 14.5 0.00 0.00 0.00 84 1008.7
20260506022704 10 4 9.7 16.1 0.00 0.00 0.00 84 1008.8
20260506022204 10 13 9.7 14.5 0.00 0.00 0.00 84 1008.8
20260506021704 10 15 9.7 19.3 0.00 0.00 0.00 84 1008.7
20260506021204 10 10 6.4 14.5 0.00 0.00 0.00 84 1008.8
20260506020704 10 3 8.0 12.9 0.00 0.00 0.00 84 1008.8
20260506020205 10 17 8.0 14.5 0.00 0.00 0.00 84 1008.8
20260506015705 10 8 9.7 19.3 0.00 0.00 0.00 84 1008.8
20260506015205 10 353 9.7 19.3 0.00 0.00 0.00 84 1008.8
20260506014704 10 10 6.4 16.1 0.00 0.00 0.00 84 1008.8
20260506014205 10 356 6.4 16.1 0.00 0.00 0.00 84 1008.8
20260506013704 10 350 6.4 12.9 0.00 0.00 0.00 84 1008.9
20260506013205 10 8 8.0 12.9 0.00 0.00 0.00 83 1008.9
20260506012705 10 357 8.0 14.5 0.00 0.00 0.00 84 1008.9
20260506012204 10 356 6.4 14.5 0.00 0.00 0.00 83 1008.9
20260506011705 10 12 8.0 12.9 0.00 0.00 0.00 84 1008.9
20260506011205 10 8 8.0 14.5 0.00 0.00 0.00 83 1008.9
20260506010704 10 19 9.7 16.1 0.00 0.00 0.00 83 1009.0
20260506010204 10 9 8.0 14.5 0.00 0.00 0.00 84 1009.1
20260506005205 10 24 9.7 19.3 0.00 0.00 0.00 84 1009.1
20260506003704 10 18 8.0 12.9 0.00 0.00 0.00 84 1009.2
20260506003205 10 23 8.0 16.1 0.00 0.00 0.00 84 1009.3
20260506002704 10 13 8.0 19.3 0.00 0.00 0.00 84 1009.3
20260506001705 10 23 12.9 20.9 0.00 0.00 0.00 83 1009.4
20260506001205 10 17 9.7 19.3 0.00 0.00 0.00 84 1009.5
20260506000704 10 15 11.3 22.5 0.00 0.00 0.00 84 1009.5
20260506000205 10 0 9.7 19.3 0.00 0.00 0.00 84 1009.5
20260505235705 10 19 8.0 16.1 0.00 0.00 0.00 83 1009.5
20260505235204 10 10 8.0 14.5 0.00 0.00 0.00 83 1009.5
20260505234704 10 19 9.7 16.1 0.00 0.00 0.00 83 1009.5
20260505234204 10 14 8.0 14.5 0.00 0.00 0.00 83 1009.6
20260505233705 10 11 9.7 20.9 0.00 0.00 0.00 84 1009.6
20260505233205 9 2 6.4 16.1 0.00 0.00 0.00 83 1009.7
20260505232704 9 8 8.0 16.1 0.00 0.00 0.00 83 1009.7
20260505232205 9 14 8.0 16.1 0.00 0.00 0.00 83 1009.8
20260505231704 9 8 8.0 12.9 0.00 0.00 0.00 83 1009.8
20260505231204 9 11 4.8 12.9 0.00 0.00 0.00 83 1009.9
20260505230704 9 23 9.7 16.1 0.00 0.00 0.00 83 1009.9
20260505230204 9 19 8.0 11.3 0.00 0.00 0.00 83 1009.9
20260505225704 9 25 8.0 11.3 0.00 0.00 0.00 83 1009.9
20260505224705 9 0 9.7 14.5 0.00 0.00 0.00 82 1009.9
20260505224204 9 14 8.0 16.1 0.00 0.00 0.00 82 1009.9
20260505223704 9 28 6.4 14.5 0.00 0.00 0.00 81 1009.9
20260505223204 9 17 6.4 14.5 0.00 0.00 0.00 81 1010.0
20260505222706 10 21 8.0 16.1 0.00 0.00 0.00 81 1009.9
20260505222205 10 10 8.0 16.1 0.00 0.00 0.00 80 1010.0
20260505221704 10 11 9.7 16.1 0.00 0.00 0.00 80 1010.0
20260505221205 10 15 8.0 19.3 0.00 0.00 0.00 79 1010.1
20260505220204 10 11 8.0 16.1 0.00 0.00 0.00 78 1010.1
20260505215704 10 17 9.7 19.3 0.00 0.00 0.00 78 1010.1
20260505215204 10 17 11.3 19.3 0.00 0.00 0.00 78 1010.2
20260505214704 10 16 9.7 22.5 0.00 0.00 0.00 77 1010.1
20260505213204 10 15 9.7 14.5 0.00 0.00 0.00 77 1010.3
20260505212704 10 21 14.5 19.3 0.00 0.00 0.00 77 1010.3
20260505212204 10 15 9.7 16.1 0.00 0.00 0.00 78 1010.3
20260505211704 10 25 14.5 20.9 0.00 0.00 0.00 77 1010.3
20260505211203 10 17 8.0 19.3 0.00 0.00 0.00 77 1010.3
20260505210704 10 23 11.3 16.1 0.00 0.00 0.00 77 1010.3
20260505210204 10 8 6.4 16.1 0.00 0.00 0.00 77 1010.4
20260505205204 10 19 11.3 19.3 0.00 0.00 0.00 77 1010.4
20260505204703 10 15 8.0 20.9 0.00 0.00 0.00 76 1010.4
20260505204203 10 20 11.3 19.3 0.00 0.00 0.00 77 1010.5